TimeEDT,TemperatureF,Dew PointF,Humidity,Sea Level PressureIn,VisibilityMPH,Wind Direction,Wind SpeedMPH,Gust SpeedMPH,PrecipitationIn,Events,Conditions,WindDirDegrees,DateUTC
12:54 AM,43.0,39.9,89,29.77,10.0,Calm,Calm,-,N/A,,Partly Cloudy,0,2012-10-21 04:54:00
1:54 AM,41.0,37.9,89,29.78,8.0,Calm,Calm,-,N/A,,Clear,0,2012-10-21 05:54:00
2:54 AM,41.0,37.0,86,29.79,10.0,Calm,Calm,-,N/A,,Partly Cloudy,0,2012-10-21 06:54:00
3:16 AM,39.2,37.4,93,29.79,4.0,Calm,Calm,-,N/A,,Scattered Clouds,0,2012-10-21 07:16:00
3:25 AM,39.2,37.4,93,29.79,9.0,Calm,Calm,-,N/A,,Mostly Cloudy,0,2012-10-21 07:25:00
3:45 AM,39.2,35.6,87,29.79,1.5,Calm,Calm,-,N/A,,Mostly Cloudy,0,2012-10-21 07:45:00
3:54 AM,39.9,37.0,89,29.80,0.8,Calm,Calm,-,N/A,,Mist,0,2012-10-21 07:54:00
4:14 AM,39.2,37.4,93,29.80,0.2,Calm,Calm,-,N/A,Fog,Fog,0,2012-10-21 08:14:00
4:54 AM,39.0,37.0,93,29.81,0.2,Calm,Calm,-,N/A,Fog,Fog,0,2012-10-21 08:54:00
5:34 AM,39.2,37.4,93,29.82,1.0,NW,3.5,-,N/A,,Mist,310,2012-10-21 09:34:00
5:38 AM,39.2,37.4,93,29.82,3.0,Calm,Calm,-,N/A,,Mostly Cloudy,0,2012-10-21 09:38:00
5:45 AM,37.4,35.6,93,29.82,4.0,Calm,Calm,-,N/A,,Mostly Cloudy,0,2012-10-21 09:45:00
5:48 AM,37.4,35.6,93,29.82,1.8,NE,4.6,-,N/A,,Mostly Cloudy,40,2012-10-21 09:48:00
5:54 AM,39.9,37.0,89,29.83,1.2,Calm,Calm,-,N/A,,Mostly Cloudy,0,2012-10-21 09:54:00
6:05 AM,39.2,35.6,87,29.81,3.0,Calm,Calm,-,N/A,,Overcast,0,2012-10-21 10:05:00
6:54 AM,39.0,36.0,89,29.83,8.0,Calm,Calm,-,N/A,,Clear,0,2012-10-21 10:54:00
7:54 AM,39.9,36.0,86,29.85,10.0,Calm,Calm,-,N/A,,Scattered Clouds,0,2012-10-21 11:54:00
8:54 AM,46.0,42.1,86,29.85,10.0,Calm,Calm,-,N/A,,Mostly Cloudy,0,2012-10-21 12:54:00
9:54 AM,53.1,39.9,61,29.86,10.0,West,12.7,-,N/A,,Overcast,260,2012-10-21 13:54:00
10:54 AM,55.9,37.9,51,29.86,10.0,West,11.5,19.6,N/A,,Mostly Cloudy,260,2012-10-21 14:54:00
11:54 AM,59.0,36.0,42,29.86,10.0,West,11.5,20.7,N/A,,Scattered Clouds,280,2012-10-21 15:54:00
12:54 PM,59.0,37.0,44,29.85,10.0,West,11.5,19.6,N/A,,Overcast,270,2012-10-21 16:54:00
1:54 PM,59.0,36.0,42,29.84,10.0,West,16.1,23.0,N/A,,Overcast,270,2012-10-21 17:54:00
2:54 PM,57.0,37.0,47,29.85,10.0,WSW,13.8,-,N/A,,Overcast,250,2012-10-21 18:54:00
3:54 PM,59.0,39.0,48,29.85,10.0,WSW,16.1,25.3,N/A,,Overcast,250,2012-10-21 19:54:00
4:54 PM,55.9,39.9,55,29.86,10.0,Variable,3.5,-,0.00,,Overcast,0,2012-10-21 20:54:00
5:54 PM,54.0,39.9,59,29.87,10.0,Variable,5.8,-,0.00,,Mostly Cloudy,0,2012-10-21 21:54:00
6:54 PM,55.0,39.9,57,29.88,10.0,WNW,8.1,16.1,N/A,,Mostly Cloudy,290,2012-10-21 22:54:00
7:54 PM,53.1,43.0,69,29.88,10.0,Calm,Calm,-,0.00,,Overcast,0,2012-10-21 23:54:00
8:54 PM,55.0,39.0,55,29.88,10.0,Variable,5.8,-,N/A,,Mostly Cloudy,0,2012-10-22 00:54:00
9:54 PM,52.0,39.9,63,29.89,10.0,Variable,4.6,-,N/A,,Overcast,0,2012-10-22 01:54:00
10:54 PM,55.0,37.9,53,29.88,10.0,WNW,11.5,18.4,N/A,,Partly Cloudy,300,2012-10-22 02:54:00
11:54 PM,54.0,37.9,55,29.88,10.0,NW,9.2,20.7,N/A,,Partly Cloudy,320,2012-10-22 03:54:00